When you browse on this site, cookies collect data to enhance your experience and personalize the content and advertising you see.
Visit our Privacy Policy to learn more. By continuing to use the site, you agree to this use of cookies and data.
  • In Austria
  • List of Countries
  • For 7 days
  • Water Temperature
  • Weather Map
  • News
  • Weather Widgets
  • user-avatar
    Login

    Hourly Weather Soacha

    Today, 23 September, Monday

    Time Temperature Precipitation Wind Pressure Humidity
    00:00 +11°C° 0.1 mm 1 mps 561 mmHg 83%
    01:00 +11°C° 0 mm 1 mps 560 mmHg 83%
    02:00 +11°C° 0.2 mm 1 mps 560 mmHg 83%
    03:00 +11°C° 0.2 mm 1 mps 560 mmHg 83%
    04:00 +10°C° 0.2 mm 1 mps 560 mmHg 82%
    05:00 +11°C° 0.1 mm 1 mps 561 mmHg 81%
    06:00 +12°C° 0.1 mm 1 mps 562 mmHg 79%
    07:00 +13°C° 0.1 mm 1 mps 562 mmHg 77%
    08:00 +15°C° 0 mm 1 mps 563 mmHg 72%
    09:00 +16°C° 0 mm 1 mps 564 mmHg 67%
    10:00 +19°C° 0 mm 1 mps 565 mmHg 61%
    11:00 +19°C° 0.4 mm 1 mps 564 mmHg 64%
    12:00 +18°C° 0.4 mm 2 mps 563 mmHg 67%
    13:00 +18°C° 0.4 mm 2 mps 562 mmHg 69%
    14:00 +17°C° 0.6 mm 2 mps 562 mmHg 71%
    15:00 +18°C° 0.6 mm 1 mps 561 mmHg 73%
    16:00 +18°C° 0.6 mm 1 mps 561 mmHg 75%
    17:00 +16°C° 0.4 mm 1 mps 561 mmHg 78%
    18:00 +15°C° 0.4 mm 1 mps 561 mmHg 80%
    19:00 +14°C° 0.4 mm 1 mps 560 mmHg 83%
    20:00 +13°C° 0.1 mm 1 mps 561 mmHg 82%
    21:00 +13°C° 0.1 mm 1 mps 561 mmHg 82%
    22:00 +13°C° 0.1 mm 1 mps 562 mmHg 81%
    23:00 +12°C° 0.1 mm 0 mps 561 mmHg 82%

    Tomorrow, 24 September, Tuesday

    Time Temperature Precipitation Wind Pressure Humidity
    00:00 +11°C° 0.1 mm 0 mps 561 mmHg 83%
    01:00 +11°C° 0.1 mm 0 mps 561 mmHg 84%
    02:00 +11°C° 0 mm 0 mps 560 mmHg 84%
    03:00 +10°C° 0 mm 0 mps 560 mmHg 85%
    04:00 +10°C° 0 mm 0 mps 560 mmHg 86%
    05:00 +11°C° 0 mm 0 mps 561 mmHg 84%
    06:00 +11°C° 0 mm 0 mps 561 mmHg 83%
    07:00 +12°C° 0 mm 0 mps 562 mmHg 81%
    08:00 +14°C° 0.2 mm 1 mps 563 mmHg 78%
    09:00 +16°C° 0.2 mm 1 mps 564 mmHg 75%
    10:00 +17°C° 0.2 mm 2 mps 565 mmHg 71%
    11:00 +17°C° 0.8 mm 2 mps 564 mmHg 74%
    12:00 +17°C° 0.8 mm 2 mps 563 mmHg 76%
    13:00 +16°C° 0.8 mm 2 mps 562 mmHg 78%
    14:00 +16°C° 1 mm 2 mps 562 mmHg 78%
    15:00 +16°C° 1 mm 1 mps 561 mmHg 79%
    16:00 +15°C° 1 mm 1 mps 561 mmHg 79%
    17:00 +14°C° 0.2 mm 1 mps 560 mmHg 81%
    18:00 +14°C° 0.2 mm 1 mps 560 mmHg 84%
    19:00 +13°C° 0.2 mm 1 mps 560 mmHg 86%
    20:00 +13°C° 0 mm 1 mps 561 mmHg 85%
    21:00 +13°C° 0 mm 1 mps 561 mmHg 84%
    22:00 +13°C° 0 mm 1 mps 562 mmHg 82%
    23:00 +13°C° 0 mm 1 mps 561 mmHg 83%

    Day after tomorrow, 25 September, Wednesday

    Time Temperature Precipitation Wind Pressure Humidity
    00:00 +11°C° 0 mm 0 mps 561 mmHg 84%
    01:00 +11°C° 0 mm 0 mps 561 mmHg 85%
    02:00 +11°C° 0.1 mm 0 mps 561 mmHg 85%
    03:00 +11°C° 0.1 mm 0 mps 561 mmHg 85%
    04:00 +11°C° 0.1 mm 0 mps 561 mmHg 85%
    05:00 +12°C° 0.1 mm 0 mps 561 mmHg 85%
    06:00 +12°C° 0.1 mm 0 mps 562 mmHg 84%
    07:00 +13°C° 0.1 mm 1 mps 562 mmHg 84%
    08:00 +14°C° 0.3 mm 1 mps 563 mmHg 80%
    09:00 +16°C° 0.3 mm 1 mps 564 mmHg 76%
    10:00 +18°C° 0.3 mm 1 mps 564 mmHg 72%
    11:00 +18°C° 1 mm 1 mps 564 mmHg 74%
    12:00 +18°C° 1 mm 1 mps 563 mmHg 75%
    13:00 +19°C° 1 mm 1 mps 562 mmHg 76%
    14:00 +18°C° 1.2 mm 1 mps 562 mmHg 77%
    15:00 +18°C° 1.2 mm 1 mps 561 mmHg 77%
    16:00 +18°C° 1.2 mm 1 mps 561 mmHg 78%
    17:00 +16°C° 1 mm 1 mps 561 mmHg 82%
    18:00 +15°C° 1 mm 1 mps 560 mmHg 86%
    19:00 +13°C° 1 mm 1 mps 560 mmHg 90%
    20:00 +13°C° 0.1 mm 1 mps 561 mmHg 89%
    21:00 +12°C° 0.1 mm 1 mps 561 mmHg 88%
    22:00 +12°C° 0.1 mm 1 mps 561 mmHg 87%
    23:00 +12°C° 0 mm 1 mps 561 mmHg 87%

    26 September, Thursday

    Time Temperature Precipitation Wind Pressure Humidity
    00:00 +10°C° 0 mm 0 mps 560 mmHg 87%
    01:00 +10°C° 0 mm 0 mps 560 mmHg 87%
    02:00 +10°C° 0 mm 0 mps 560 mmHg 86%
    03:00 +10°C° 0 mm 0 mps 560 mmHg 86%
    04:00 +10°C° 0 mm 0 mps 560 mmHg 85%
    05:00 +12°C° 0 mm 1 mps 561 mmHg 84%
    06:00 +12°C° 0 mm 1 mps 561 mmHg 83%
    07:00 +13°C° 0 mm 1 mps 562 mmHg 82%
    08:00 +14°C° 0.1 mm 1 mps 563 mmHg 77%
    09:00 +16°C° 0.1 mm 1 mps 564 mmHg 73%
    10:00 +19°C° 0.1 mm 1 mps 564 mmHg 68%
    11:00 +19°C° 0.8 mm 1 mps 564 mmHg 69%
    12:00 +19°C° 0.8 mm 1 mps 563 mmHg 71%
    13:00 +19°C° 0.8 mm 1 mps 562 mmHg 73%
    14:00 +18°C° 0.9 mm 1 mps 562 mmHg 73%
    15:00 +18°C° 0.9 mm 1 mps 561 mmHg 74%
    16:00 +18°C° 0.9 mm 1 mps 561 mmHg 74%
    17:00 +16°C° 0.7 mm 1 mps 560 mmHg 78%
    18:00 +14°C° 0.7 mm 1 mps 560 mmHg 81%
    19:00 +13°C° 0.7 mm 1 mps 560 mmHg 85%
    20:00 +12°C° 0.3 mm 1 mps 560 mmHg 85%
    21:00 +12°C° 0.3 mm 1 mps 560 mmHg 84%
    22:00 +12°C° 0.3 mm 1 mps 560 mmHg 84%
    23:00 +11°C° 0.1 mm 1 mps 560 mmHg 84%

    27 September, Friday

    Time Temperature Precipitation Wind Pressure Humidity
    00:00 +11°C° 0.1 mm 1 mps 560 mmHg 83%
    01:00 +11°C° 0.1 mm 1 mps 560 mmHg 83%
    02:00 +11°C° 0 mm 1 mps 559 mmHg 83%
    03:00 +11°C° 0 mm 1 mps 559 mmHg 84%
    04:00 +10°C° 0 mm 1 mps 559 mmHg 84%
    05:00 +11°C° 0 mm 1 mps 560 mmHg 82%
    06:00 +12°C° 0 mm 1 mps 561 mmHg 80%
    07:00 +13°C° 0 mm 1 mps 562 mmHg 79%
    08:00 +15°C° 0.1 mm 1 mps 563 mmHg 74%
    09:00 +18°C° 0.1 mm 1 mps 564 mmHg 69%
    10:00 +19°C° 0.1 mm 1 mps 565 mmHg 65%
    11:00 +19°C° 0.7 mm 1 mps 564 mmHg 67%
    12:00 +18°C° 0.7 mm 2 mps 563 mmHg 70%
    13:00 +18°C° 0.7 mm 2 mps 562 mmHg 73%
    14:00 +17°C° 0.8 mm 2 mps 562 mmHg 74%
    15:00 +18°C° 0.8 mm 1 mps 561 mmHg 75%
    16:00 +18°C° 0.8 mm 1 mps 561 mmHg 76%
    17:00 +15°C° 0.6 mm 1 mps 560 mmHg 80%
    18:00 +14°C° 0.6 mm 1 mps 560 mmHg 84%
    19:00 +13°C° 0.6 mm 1 mps 560 mmHg 88%
    20:00 +12°C° 0 mm 1 mps 560 mmHg 86%
    21:00 +12°C° 0 mm 1 mps 560 mmHg 84%
    22:00 +12°C° 0 mm 1 mps 560 mmHg 82%
    23:00 +12°C° 0.1 mm 1 mps 560 mmHg 82%

    28 September, Saturday

    Time Temperature Precipitation Wind Pressure Humidity
    00:00 +11°C° 0.1 mm 1 mps 560 mmHg 83%
    01:00 +11°C° 0.1 mm 1 mps 560 mmHg 83%
    02:00 +11°C° 0 mm 1 mps 559 mmHg 84%
    03:00 +10°C° 0 mm 1 mps 559 mmHg 84%
    04:00 +10°C° 0 mm 1 mps 559 mmHg 85%
    05:00 +11°C° 0 mm 1 mps 560 mmHg 82%
    06:00 +12°C° 0 mm 1 mps 561 mmHg 79%
    07:00 +12°C° 0 mm 0 mps 562 mmHg 77%
    08:00 +15°C° 0.1 mm 1 mps 563 mmHg 71%
    09:00 +18°C° 0.1 mm 1 mps 564 mmHg 64%
    10:00 +20°C° 0.1 mm 1 mps 565 mmHg 58%
    11:00 +19°C° 0.4 mm 2 mps 564 mmHg 61%
    12:00 +19°C° 0.4 mm 2 mps 563 mmHg 65%
    13:00 +19°C° 0.4 mm 2 mps 562 mmHg 68%
    14:00 +18°C° 1.1 mm 2 mps 561 mmHg 72%
    15:00 +19°C° 1.1 mm 1 mps 561 mmHg 76%
    16:00 +18°C° 1.1 mm 1 mps 560 mmHg 80%
    17:00 +16°C° 1.4 mm 1 mps 560 mmHg 83%
    18:00 +14°C° 1.4 mm 1 mps 560 mmHg 86%
    19:00 +13°C° 1.4 mm 1 mps 559 mmHg 88%
    20:00 +13°C° 0.6 mm 1 mps 559 mmHg 88%
    21:00 +12°C° 0.6 mm 1 mps 559 mmHg 88%
    22:00 +11°C° 0.6 mm 0 mps 559 mmHg 87%
    23:00 +12°C° 0.1 mm 1 mps 559 mmHg 88%
    Show more